Location: Ferchesar
(52.6477°N, 12.4298°E)
Time: 09:11:58
(UTC+01:00)

Vanguard 1 - Pass Details

Date: 09 December 2021
Orbit: 652 x 3830 km, 34.2° (Epoch: 16 January)

Event Time Altitude Azimuth Distance (km) Brightness Sun altitude
Rises 20:35:16 0° 192° (SSW) 6,242 14.1 -40.9°
Reaches altitude 10° 20:40:23 10° 179° (S) 5,708 13.8 -41.6°
Enters shadow 20:42:34 14° 172° (S) 5,556 13.6 -41.9°
